[[{"header":{"parameterUnit":"m.s-1","parameterCategory":1,"la1":30.2991,"la2":30.254,"lo1":-89.0895,"lo2":-89.0444,"dy":0.0017,"dx":0.0017,"nx":28,"ny":28,"refTime":"2025-07-21T21:00:00:Z","depth":0,"parameterNumber":2,"parameterNumberName":"U-component_of_WINDS"},"data":[0,0,0,0,0,0,0,0,0,0,0,0,0,0,0,0,0,0,0,0,0,0,0,0,0,0,0,0,0,0,0,0,0,0,0,0,0,0,0,0,0,0,0,0,0,0,0,0,0,0,0,0,0,0,0,0,0,0,2.7126,2.7128,0,2.728,2.7282,2.7284,2.727,2.7267,2.7265,2.7263,2.7429,2.7436,2.7442,0,0,0,0,0,0,0,0,0,0,0,0,0,2.6827,2.6832,2.7126,2.7128,2.713,2.728,2.7282,2.7284,2.727,2.7267,2.7264,2.7262,2.7427,2.7435,2.7443,0,0,0,0,0,0,0,0,0,0,0,0,0,2.6967,2.6834,2.7126,2.7141,2.7144,2.728,2.7282,2.7285,2.7271,2.7267,2.7264,2.726,2.7425,2.7434,2.7444,2.7578,0,0,2.7475,2.7479,0,0,0,0,0,0,0,0,2.6959,2.6978,2.7137,2.714,2.7143,2.7252,2.7238,2.7383,2.7272,2.7223,2.7263,2.7259,2.7374,2.7388,2.7425,2.7585,2.7593,2.7476,2.7482,2.7486,2.7489,0,0,0,0,0,0,0,2.6949,2.6971,2.7187,2.7139,2.7143,2.7142,2.7158,2.7265,2.7317,2.7227,2.7226,2.7244,2.7375,2.7415,2.7429,2.7595,2.7475,2.7484,2.749,2.7494,2.7871,2.7875,0,0,0,0,0,0,2.6935,2.6963,2.7183,2.7192,2.704,2.715,2.7168,2.7221,2.7316,2.7326,2.7247,2.7243,2.74,2.7417,2.7434,2.7595,2.7486,2.7495,2.7501,2.7867,2.7872,2.7876,0,0,0,0,0,0,2.6928,2.6954,2.7176,2.7077,2.7105,2.7159,2.7219,2.7226,2.7266,2.7331,2.7341,2.7278,2.7398,2.742,2.7541,2.76,2.75,2.7509,2.7862,2.7868,2.7874,2.7917,0,0,0,0,0,0,2.692,2.6952,2.7002,2.7078,2.7111,2.7278,2.7222,2.7231,2.7282,2.7278,2.7362,2.7373,2.7397,2.7526,2.7551,2.7612,2.7517,2.7857,2.7865,2.7872,2.7911,2.7924,2.7935,0,0,0,0,0,2.6909,2.7011,2.7004,2.7031,2.7174,2.7282,2.73,2.7323,2.7287,2.7338,2.7379,2.737,2.759,2.7539,2.7566,2.7632,2.7853,2.7863,2.7871,2.7905,2.7921,2.7935,0,0,0,0,0,0,2.6943,2.7021,2.7015,2.7144,2.7206,2.7279,2.7344,2.734,2.7416,2.7409,2.7437,2.7456,2.7577,2.7617,2.7558,2.7765,2.7717,2.7732,2.7733,2.7749,2.7761,2.7748,2.7525,0,0,0,0,0,2.6965,2.7044,2.7109,2.7216,2.7247,2.729,2.7338,2.735,2.7416,2.7444,2.7494,2.7561,2.7645,2.77,2.7781,2.7917,2.7935,2.7976,2.7988,2.7998,2.801,2.8083,2.8101,2.7906,2.7905,2.7905,0,0,2.7012,2.7065,2.7113,2.7224,2.7273,2.7356,2.7313,2.7403,2.7464,2.7458,2.7573,2.7613,2.769,2.7818,2.7877,2.7855,2.8068,2.8009,2.8016,2.8024,2.8094,2.8112,2.8129,2.7912,2.7911,2.791,0,0,2.7139,2.7187,2.728,2.733,2.7404,2.7431,2.7454,2.7528,2.7552,2.7668,2.7664,2.774,2.7884,2.7938,2.7984,2.813,2.8124,2.8156,2.822,2.829,2.8306,2.8319,2.8369,2.8387,2.8168,2.8169,2.8169,0,2.7189,2.731,2.733,2.7419,2.7467,2.7463,2.7557,2.7606,2.7704,2.7739,2.7712,2.7891,2.7943,2.8082,2.8117,2.8156,2.8182,2.8146,2.8301,2.8315,2.8329,2.8376,2.8395,2.8172,2.8171,2.8171,2.8171,0,2.7367,2.7451,2.7518,2.7608,2.7665,2.7757,2.7792,2.7847,2.7854,2.7885,2.8002,2.8064,2.8156,2.819,2.82,2.8331,2.8314,2.8295,2.8247,2.835,2.8395,2.8414,2.8176,2.8175,2.8174,2.8173,0,0,2.752,2.7617,2.7641,2.7681,2.7761,2.7828,2.7921,2.8007,2.8053,2.8122,2.8199,2.832,2.8301,2.8354,2.8369,2.8432,2.854,2.8404,2.8406,2.8425,2.8686,2.8698,2.8719,2.8537,2.8541,2.8543,2.8678,0,2.7653,2.7811,2.7831,2.7973,2.805,2.8046,2.8126,2.8185,2.8217,2.8289,2.8326,2.8409,2.838,2.8411,2.8472,2.8513,2.8592,2.8505,2.861,2.8613,2.8587,2.8743,2.8757,2.8881,2.8696,2.87,2.8702,0,2.7829,2.7897,2.8045,2.8112,2.8146,2.8217,2.8297,2.8366,2.8433,2.8451,2.8509,2.8516,2.8612,2.8562,2.8695,2.8634,2.8679,2.8706,2.8711,2.872,2.8662,2.8754,2.8922,2.8939,2.873,2.8728,2.8726,0,2.7921,2.8051,2.8156,2.8191,2.8273,2.8322,2.8359,2.8423,2.8473,2.8544,2.8577,2.866,2.8705,2.8769,2.8799,2.876,2.893,2.8882,2.8948,2.8947,2.8982,2.8979,2.9157,2.9015,2.9015,2.9014,2.9014,0,2.8066,2.8157,2.8198,2.8262,2.8363,2.8386,2.8487,2.8522,2.8578,2.865,2.8655,2.8723,2.8759,2.8833,2.8857,2.8962,2.8984,2.9002,2.9007,2.9,2.8997,2.9028,2.9019,2.9019,2.9018,2.9017,2.9016,0,2.8186,2.8217,2.8331,2.8398,2.8417,2.8488,2.8547,2.861,2.864,2.8732,2.8755,2.8803,2.8891,2.8926,2.9035,2.9051,2.9171,2.9171,2.9147,2.9148,2.921,2.9203,2.9412,2.944,2.9282,2.9284,2.9285,0,2.8275,2.8343,2.8417,2.8464,2.8501,2.8578,2.8627,2.8653,2.8706,2.8786,2.8839,2.8925,2.8995,2.9135,2.9182,2.9264,2.9265,2.9332,2.9277,2.9267,2.9263,2.9257,2.9263,2.9342,2.9343,2.9345,2.9346,0,2.8428,2.844,2.851,2.8585,2.8644,2.8706,2.8766,2.8805,2.884,2.8899,2.8986,2.904,2.9148,2.9234,2.9319,2.9359,2.9359,2.9363,2.9382,2.9374,2.9356,2.9364,2.9172,2.9358,2.9356,2.9356,2.9355,2.9354,2.8534,2.8593,2.8653,2.8731,2.8778,2.8834,2.8895,2.8932,2.9004,2.9091,2.9104,2.9196,2.9262,2.9374,2.9418,2.9492,2.9475,2.9504,2.9511,2.9516,2.9519,2.9346,2.9509,2.9508,2.9508,2.9508,2.9508,0,2.8685,2.8723,2.8794,2.8876,2.8937,2.8928,2.8994,2.9047,2.9127,2.9186,2.9254,2.9354,2.9436,2.9488,2.9572,2.9621,2.9623,2.9642,2.9637,2.9646,2.9531,2.9504,2.9639,2.9639,2.9639,2.9639,2.9639,2.9639,2.877,2.887,2.8888,2.9012,2.905,2.9138,2.9176,2.9228,2.9274,2.9384,2.9451,2.9483,2.954,2.9627,2.9703,2.9716,2.9746,2.9766,2.9778,2.9669,2.9655,2.9642,2.9617,2.9773,2.9773,2.9887,2.9888,2.9888]},{"header":{"parameterUnit":"m.s-1","parameterCategory":1,"la1":30.2991,"la2":30.254,"lo1":-89.0895,"lo2":-89.0444,"dy":0.0017,"dx":0.0017,"nx":28,"ny":28,"refTime":"2025-07-21T21:00:00:Z","depth":0,"parameterNumber":3,"parameterNumberName":"V-component_of_WINDS"},"data":[0,0,0,0,0,0,0,0,0,0,0,0,0,0,0,0,0,0,0,0,0,0,0,0,0,0,0,0,0,0,0,0,0,0,0,0,0,0,0,0,0,0,0,0,0,0,0,0,0,0,0,0,0,0,0,0,0,0,3.5027,3.5028,0,3.5051,3.5052,3.5052,3.5019,3.5018,3.5017,3.5016,3.5037,3.5038,3.504,0,0,0,0,0,0,0,0,0,0,0,0,0,3.4949,3.495,3.5027,3.5028,3.5028,3.5051,3.5052,3.5052,3.502,3.5018,3.5017,3.5016,3.5036,3.5038,3.504,0,0,0,0,0,0,0,0,0,0,0,0,0,3.4979,3.4951,3.5027,3.5015,3.5014,3.5051,3.5052,3.5052,3.502,3.5018,3.5016,3.5015,3.5036,3.5038,3.504,3.509,0,0,3.5048,3.5049,0,0,0,0,0,0,0,0,3.4977,3.4982,3.5016,3.5016,3.5015,3.5031,3.5031,3.5065,3.502,3.5018,3.5016,3.5014,3.5036,3.5038,3.5046,3.5091,3.5092,3.5048,3.505,3.5051,3.5051,0,0,0,0,0,0,0,3.4975,3.498,3.5037,3.5017,3.5016,3.5006,3.5009,3.5038,3.5036,3.5018,3.5015,3.5019,3.5035,3.5044,3.5047,3.5092,3.5048,3.505,3.5052,3.5053,3.5176,3.5178,0,0,0,0,0,0,3.4975,3.4979,3.5036,3.5037,3.4991,3.5009,3.5012,3.5027,3.5036,3.5035,3.502,3.5017,3.5041,3.5044,3.5047,3.5104,3.5051,3.5053,3.5054,3.5174,3.5177,3.5179,0,0,0,0,0,0,3.4974,3.4981,3.5035,3.5008,3.5014,3.5012,3.503,3.5029,3.5038,3.5038,3.5037,3.503,3.504,3.5044,3.5079,3.5104,3.5054,3.5056,3.5172,3.5175,3.5178,3.522,0,0,0,0,0,0,3.4971,3.498,3.5,3.5008,3.5015,3.5068,3.5032,3.503,3.5042,3.5039,3.5047,3.5046,3.5039,3.5076,3.5082,3.5107,3.5058,3.517,3.5173,3.5177,3.5216,3.5223,3.523,0,0,0,0,0,3.4969,3.5011,3.5001,3.5008,3.5041,3.507,3.5074,3.5065,3.5045,3.5064,3.5063,3.5046,3.5101,3.508,3.5086,3.5112,3.5168,3.5172,3.5176,3.5213,3.5222,3.523,0,0,0,0,0,0,3.5004,3.5012,3.5001,3.5047,3.5058,3.5064,3.5088,3.5075,3.5091,3.5087,3.5074,3.5076,3.5114,3.5117,3.5093,3.516,3.5131,3.5137,3.5157,3.5165,3.5172,3.517,3.506,0,0,0,0,0,3.5018,3.5042,3.5047,3.5087,3.5093,3.509,3.5102,3.5095,3.5105,3.5109,3.5111,3.5121,3.514,3.5153,3.5171,3.5217,3.5217,3.5238,3.5245,3.525,3.5255,3.5277,3.5286,3.5192,3.5192,3.5192,0,0,3.5045,3.5052,3.5068,3.5094,3.5102,3.5125,3.5094,3.5121,3.5138,3.5113,3.5146,3.5148,3.5158,3.5198,3.5216,3.5202,3.5281,3.5256,3.526,3.5261,3.5282,3.5291,3.5299,3.5195,3.5194,3.5194,0,0,3.5107,3.5116,3.515,3.5158,3.517,3.5168,3.5176,3.5184,3.5184,3.5218,3.5199,3.5219,3.5253,3.526,3.5268,3.5332,3.5316,3.5338,3.5374,3.5396,3.5403,3.541,3.5431,3.5439,3.5343,3.5343,3.5343,0,3.514,3.5176,3.5168,3.5196,3.5207,3.5187,3.5219,3.5227,3.5244,3.5252,3.5236,3.5277,3.5282,3.5323,3.5339,3.5346,3.5354,3.5336,3.5403,3.541,3.5415,3.5435,3.5444,3.5345,3.5345,3.5345,3.5344,0,3.5214,3.524,3.5265,3.5283,3.5297,3.5327,3.5322,3.5337,3.5328,3.5327,3.536,3.5366,3.5384,3.5393,3.5385,3.5432,3.5423,3.5406,3.5376,3.5427,3.5446,3.5453,3.5349,3.5348,3.5347,3.5347,0,0,3.5299,3.5312,3.5321,3.5328,3.534,3.5359,3.5387,3.5406,3.5418,3.543,3.5452,3.5481,3.5465,3.5474,3.5466,3.5486,3.5534,3.5465,3.5465,3.5477,3.5585,3.5597,3.5606,3.5524,3.5525,3.5526,3.5584,0,3.536,3.5411,3.5403,3.5451,3.5474,3.5454,3.5479,3.5488,3.5487,3.5505,3.5504,3.5524,3.5501,3.5507,3.5525,3.5524,3.5555,3.552,3.5543,3.5544,3.554,3.5616,3.5629,3.5683,3.5591,3.5592,3.5593,0,3.5437,3.5453,3.5504,3.5511,3.552,3.5542,3.5558,3.5576,3.5585,3.5583,3.5593,3.5581,3.5608,3.5579,3.5615,3.5591,3.56,3.56,3.5602,3.5603,3.5571,3.5617,3.5701,3.5708,3.5605,3.5604,3.5603,0,3.5492,3.5526,3.556,3.5567,3.5576,3.5592,3.5596,3.5604,3.5615,3.5629,3.5635,3.5651,3.566,3.5672,3.5664,3.5644,3.57,3.5671,3.5698,3.5698,3.5709,3.5709,3.5794,3.5718,3.5718,3.5718,3.5717,0,3.5559,3.559,3.5584,3.5605,3.5639,3.563,3.5663,3.5665,3.5672,3.5691,3.5675,3.5694,3.5683,3.57,3.5694,3.5724,3.5728,3.5726,3.5724,3.5727,3.5727,3.5731,3.5727,3.572,3.5719,3.5719,3.5718,0,3.5625,3.5623,3.5658,3.5664,3.5667,3.5691,3.5696,3.5714,3.5713,3.5737,3.5743,3.574,3.5759,3.5753,3.5774,3.5769,3.5806,3.58,3.5804,3.5801,3.5828,3.5825,3.5917,3.5928,3.5847,3.5848,3.5849,0,3.5668,3.5691,3.57,3.5713,3.5719,3.5739,3.575,3.5742,3.5754,3.5766,3.5783,3.5801,3.5815,3.5847,3.5846,3.5861,3.5854,3.5885,3.5856,3.5858,3.5852,3.5851,3.5852,3.5891,3.5892,3.5892,3.5893,0,3.5742,3.574,3.5758,3.5775,3.5789,3.5802,3.5813,3.5824,3.5817,3.5831,3.5851,3.5862,3.5883,3.5901,3.5915,3.5918,3.5904,3.5903,3.5909,3.5912,3.5912,3.5911,3.5818,3.59,3.5899,3.5899,3.5898,3.5898,3.5797,3.5816,3.5825,3.5845,3.5853,3.5864,3.5881,3.5882,3.5899,3.5916,3.591,3.5933,3.594,3.5958,3.5963,3.5979,3.5967,3.5977,3.5979,3.5982,3.5984,3.5911,3.5982,3.5982,3.5981,3.5981,3.5981,0,3.5869,3.5874,3.5893,3.5909,3.5925,3.5912,3.5923,3.5936,3.5957,3.5965,3.598,3.6002,3.6019,3.602,3.6035,3.6048,3.6042,3.6052,3.6051,3.6051,3.5995,3.5987,3.6057,3.6057,3.6057,3.6057,3.6057,3.6057,3.5909,3.594,3.5939,3.5974,3.5978,3.6001,3.6009,3.6018,3.6025,3.6051,3.6065,3.6066,3.6071,3.6086,3.6101,3.61,3.6106,3.6119,3.6116,3.6063,3.6055,3.6048,3.604,3.612,3.612,3.617,3.617,3.6171]}]]